Showing default

IRIDE-MS2-HEO-4, 64582

Orbit data source: Space-Track

IRIDE-MS2-HEO-4, 64582 is an Italian payload satellite in SSO that was launched on Mon, 23 Jun 2025 UTC via an FALCON 9 launch vehicle from the Air Force Western Test Range (AFWTR). Payload-class satellites include a variety of spacecraft equipped with specific instruments for various scientific and technological missions. These include communications satellites like Starlink; space stations such as the ISS; scientific satellites like the Hubble; Earth observation satellites from companies like Planet Labs, Umbra, and HawkEye 360; GPS; miniature CubeSats for education and research; and military/defense satellites.

Loading next visibility...
Identifier
64582, 2025-135BG
Orbit
SSO
Country
Flag of ITIT
Related business
Manufacturer
ArgoTec
Mission
Operational Civil Imaging
Bus & Motor
HAWK, Unknown motor
Mass
65 kg wet, 65 kg dry
Launch date (UTC)
2025-06-23 (1 year ago)
Launch vehicle
FALCON 9
Launch site
Air Force Western Test Range (AFWTR)
Object type
Payload
Rocket body
Debris
Shape & HBR
Box + 2 Pan, 3.0 m
Radar Cross Section
0.683 m², Medium (>0.1 m² and < 1m²)

Expand to show TLE details & history
Last TLE update: 12 hours ago

TLE from 12 hours ago
0 IRIDE-MS2-HEO-4
1 64582U 25135BG  26171.46968689  .00001498  00000-0  15336-3 0  9997
2 64582  97.7730 285.7706 0001775  33.5839 326.5492 14.91983067 54385
Epoch: 2026-06-20T11:16Z
TLE epoch observation values (Epoch: 2026-06-20T11:16:20.947Z)
Latitude
-0.00002°
Longitude
-152.00053°
Altitude
593.762 km
Speed
7.564 km/s
True Right ascension
19h 03m 04s
True Declination
0° 00' 00"
Sunlit
Object was in full shadow at epoch
Visualization orbit readout
Latitude
Unknown
Longitude
Unknown
Altitude
Unknown
Speed
Unknown
Apparent Right ascension
Unknown
Apparent Declination
Unknown
Sunlit
N/A
Visualization observer readout
Local Sidereal Time
10:19:03
Azimuth
Unknown
Elevation
Unknown
Doppler factor
Unknown
Orbital elements
Apogee altitude
590.009 km
Perigee altitude
587.535 km
Semi-major axis
6,966.909 km
Eccentricity
0.00018
Inclination
97.773°
RAAN
285.7706°
Arg. of periapsis
33.5839°
True anomaly
326.53799°
Mean anomaly
326.5492°
Eccentric anomaly
326.54359°
Mean motion
3.73236 °/min
Orbital period
96.45 mins
BSTAR
0.00015336
Loading maneuver chart data...
Computing Atmospheric mass density...
Loading historical data...
Loading historical data...
Loading historical data...
Loading historical data...
Loading historical data...
Loading historical data...
Loading historical data...

Documentation

Showing up to 5 results
|